Location: Bathurst
(33.4193°S, 149.5775°E)
Time: 01:16:49
(UTC+10:00)

A-11 Canister half - Pass Details

Date: 17 June 2021
Orbit: 1513 x 1687 km, 47.2° (Epoch: 28 July)

Event Time Altitude Azimuth Distance (km) Brightness Sun altitude
Rises 21:18:47 0° 240° (WSW) 4,792 12.1 -52.8°
Reaches altitude 10° 21:22:07 10° 233° (SW) 3,832 11.4 -53.5°
Enters shadow 21:25:07 21° 222° (SW) 3,057 10.7 -54.2°
